Dewpoint
36 29 27 31 33 35 35 34 33 37 41 39 35 35 47 51 51 50 51 51 53 54 57 59 59 60 61 62 62 61 61 61 59 57 56 56 55 55 54 54 54 54 54 53
32 26 33 36 36 34 35 33 34 36 39 39 34 36 47 49 49 51 51 50 51 55 56 58 59 59 60 61 61 61 61 60 59 58 56 55 55 54 54 54 54 54 53 53
26 31 35 33 35 34 33 32 35 35 37 39 36 37 41 46 49 51 51 51 52 55 56 57 58 59 59 60 61 60 60 60 60 58 56 55 54 54 54 54 53 54 54 53
30 36 35 35 33 33 30 34 34 36 33 30 37 31 39 42 45 49 50 50 50 51 56 56 58 59 59 60 61 60 61 60 59 58 56 54 53 52 53 54 54 54 54 53
28 34 35 34 32 32 33 36 34 34 33 33 33 30 34 42 40 46 49 50 50 51 54 56 57 58 59 60 60 60 59 59 59 57 56 55 54 54 54 54 54 54 55 54
34 37 36 36 34 37 38 38 37 37 34 28 31 28 29 37 38 45 48 49 49 50 54 55 57 57 59 60 60 59 59 58 57 57 56 55 54 54 53 54 54 54 55 55
33 34 37 37 33 38 36 34 28 26 27 26 30 27 25 37 38 41 46 48 49 50 53 54 55 57 58 59 59 59 58 57 56 56 56 55 55 55 54 54 54 55 55 54
28 28 35 35 33 34 33 30 24 20 23 24 29 25 24 35 38 40 46 49 50 50 53 54 55 55 56 58 59 58 57 56 56 56 56 55 55 55 55 55 55 55 55 55
28 27 32 31 29 34 32 28 28 25 24 23 26 26 21 32 37 40 45 49 50 51 52 54 55 55 55 56 58 58 57 56 56 56 56 55 55 55 55 56 56 56 56 56
30 25 29 28 25 28 30 31 21 22 18 17 20 21 22 28 32 39 44 47 50 52 52 54 54 55 55 56 57 58 57 57 56 56 56 55 55 56 56 56 56 56 56 56
31 27 24 23 23 29 22 24 24 21 22 16 16 18 23 24 32 37 42 47 49 51 52 53 54 54 53 54 55 56 57 58 57 57 57 56 56 56 56 57 57 56 56 56
32 29 23 23 24 24 22 21 24 18 16 19 19 16 20 23 31 37 39 45 48 50 52 50 48 48 50 50 51 51 51 51 50 51 53 54 57 58 57 57 58 58 57 57
31 27 21 22 24 24 22 21 20 20 19 17 16 14 18 23 26 33 41 44 48 47 45 44 45 46 45 45 46 46 47 47 48 48 49 49 48 49 51 51 51 52 54 55
32 28 25 20 21 23 21 20 19 19 18 18 17 17 18 16 20 28 39 44 43 42 40 39 39 39 39 41 42 42 43 43 45 46 46 46 45 44 44 43 44 45 46 47
30 25 29 30 28 26 23 21 20 19 19 18 19 17 18 17 17 27 36 38 39 38 38 39 39 38 37 37 38 37 37 38 41 42 42 41 40 40 41 41 41 43 43 43
28 25 28 25 28 28 25 25 23 22 20 18 18 17 18 19 25 30 34 37 39 40 39 38 38 36 35 35 35 35 34 34 37 38 37 36 37 37 37 37 38 39 39 39
27 27 26 22 28 27 24 26 25 24 22 20 19 20 19 19 19 20 32 36 39 39 38 38 37 36 35 34 33 33 33 33 32 33 31 30 31 31 31 32 33 34 34 35
26 27 28 24 25 20 22 26 27 25 24 23 21 20 20 19 20 21 30 33 36 36 35 35 32 29 27 27 27 28 27 27 27 26 25 25 25 25 25 26 26 26 28 29
23 27 26 23 23 23 23 24 25 24 23 25 24 23 21 21 22 21 24 27 30 29 30 28 25 23 22 23 24 25 24 23 23 21 21 21 22 21 22 21 22 23 24 24
23 25 23 23 22 17 22 25 26 24 23 21 22 24 24 22 20 20 24 25 25 26 25 23 21 20 19 18 22 22 21 19 19 18 18 19 19 18 17 19 19 20 21 22
20 20 19 20 21 21 23 24 26 21 20 20 20 22 23 22 21 20 20 20 21 21 21 19 18 18 16 16 20 20 18 17 17 17 18 17 17 16 18 18 19 20 21 23
14 15 15 18 17 12 23 25 23 24 21 20 20 21 20 19 18 18 18 18 18 18 17 15 15 13 12 16 18 17 16 16 16 17 17 16 16 17 18 18 20 21 22 22
11 16 14 17 14 19 24 25 27 25 23 21 20 20 19 18 17 17 16 15 16 15 13 13 13 11 11 14 15 14 15 15 15 15 16 17 19 18 19 19 20 20 20 21
18 19 17 17 15 19 22 24 25 26 24 22 20 20 18 18 17 16 15 14 14 13 12 12 11 11 10 12 14 14 15 16 16 16 17 18 18 17 19 19 19 20 20 21
14 17 14 15 14 13 13 17 19 19 23 24 20 20 19 18 17 16 14 14 13 11 11 11 11 11 11 13 13 14 15 15 15 15 15 17 18 16 17 18 19 20 20 22
16 16 15 19 20 17 15 13 11 13 15 21 21 18 19 19 17 16 14 13 12 10 10 10 10 11 12 13 13 14 15 15 14 14 15 16 16 17 17 17 17 20 20 21
Wind_Speed
2 4 8 8 18 5 12 21 14 10 13 6 16 12 20 15 21 23 24 24 23 22 12 15 20 20 20 18 19 22 21 18 18 17 19 17 18 15 13 16 15 15 16 16
2 5 6 4 6 18 15 18 8 3 15 1 9 9 18 19 19 26 28 25 24 22 18 19 18 20 20 19 20 20 20 21 18 13 8 11 14 10 15 14 15 16 16 17
3 11 11 4 5 21 10 11 7 7 8 7 11 10 21 11 12 15 18 23 25 22 24 22 19 21 20 21 20 22 21 20 18 17 10 11 10 8 9 12 14 14 16 17
9 5 16 13 5 11 11 9 16 11 6 7 6 9 11 16 20 18 18 21 24 24 18 21 22 22 24 23 22 22 21 21 17 21 21 19 18 16 12 14 13 15 16 17
7 14 16 15 6 7 7 12 18 14 7 4 14 4 8 5 18 18 18 19 22 23 20 20 22 23 21 22 23 23 23 21 20 20 21 19 16 13 10 13 17 15 16 17
4 4 2 2 5 3 26 14 16 5 6 7 9 8 8 21 23 17 21 22 24 23 21 19 15 20 21 19 21 22 23 23 18 20 19 21 20 19 16 18 19 18 15 16
3 3 2 1 15 13 15 13 7 4 7 5 1 9 5 20 26 28 30 27 25 26 22 22 24 22 22 24 24 22 25 25 23 23 22 23 23 22 21 21 18 17 16 14
3 3 9 7 4 9 18 7 7 8 11 8 2 10 12 25 22 27 27 30 28 29 25 24 23 22 23 24 25 26 26 26 25 24 24 22 21 20 19 21 17 17 17 18
3 1 1 5 3 13 5 5 2 7 2 5 7 6 9 8 22 21 24 22 23 22 22 23 21 22 21 24 26 28 27 25 26 24 20 22 22 21 20 18 17 17 16 15
1 3 5 4 2 10 6 6 6 0 10 6 6 9 20 22 29 29 28 30 27 26 25 23 24 25 23 24 24 22 24 25 22 22 19 20 20 18 18 16 18 17 17 17
2 2 5 7 8 14 8 9 4 3 5 8 7 22 10 21 26 27 27 27 27 26 27 27 25 20 17 15 17 15 13 16 15 19 20 20 20 20 18 18 19 19 19 20
1 2 6 10 4 7 6 7 8 4 5 5 3 6 5 9 23 26 31 27 27 30 27 22 18 18 19 18 16 16 14 13 9 5 5 4 4 11 16 17 16 14 15 16
1 4 5 3 8 4 7 6 5 6 2 6 5 2 6 4 5 15 19 17 18 17 19 20 23 24 20 17 15 13 11 12 10 8 8 7 5 4 5 6 5 5 6 6
3 4 7 14 3 4 8 10 9 8 11 7 12 10 16 7 7 7 7 11 15 18 17 16 14 14 14 15 14 12 10 8 7 7 7 8 6 5 3 3 4 4 4 4
4 7 4 11 9 5 6 12 16 18 14 15 13 11 14 9 5 6 8 9 13 15 17 18 18 17 16 15 12 10 8 7 7 8 7 5 5 5 5 2 4 3 4 3
2 3 2 6 7 12 14 13 14 18 17 19 11 28 11 4 6 6 13 16 18 20 21 20 17 15 16 16 13 12 11 9 8 8 8 6 6 4 4 2 3 4 3 4
1 3 3 6 1 3 13 23 21 12 13 17 25 29 7 11 15 15 17 22 27 27 27 26 25 22 18 16 15 15 13 12 10 10 8 7 7 6 5 4 5 3 2 4
2 2 2 4 1 12 6 2 10 25 28 22 24 14 19 24 24 16 13 24 26 22 21 17 14 12 12 11 11 11 10 10 10 10 9 7 7 7 6 6 6 4 4 4
7 2 3 5 8 10 11 1 4 7 15 16 26 20 18 8 1 10 13 15 17 13 12 15 17 17 16 15 13 13 11 10 11 9 9 7 7 7 7 7 6 5 5 6
5 1 3 3 6 9 2 3 2 2 15 9 6 8 12 7 17 24 4 5 9 13 18 21 20 19 18 16 17 17 13 10 9 8 7 7 6 7 7 6 5 4 5 5
6 4 16 16 7 8 9 4 0 4 3 5 6 8 1 12 8 4 3 6 8 11 18 18 19 20 18 16 16 16 16 16 14 12 11 10 8 9 8 7 5 5 6 7
13 14 9 7 6 14 7 5 8 2 2 2 2 4 3 3 4 4 6 10 14 18 17 15 17 15 12 13 15 15 14 11 10 10 10 9 8 7 7 8 7 8 9 9
7 9 7 15 11 4 7 6 4 3 5 2 2 2 5 5 4 6 8 11 12 15 15 14 18 16 11 10 12 14 11 11 10 11 10 10 9 8 8 9 9 9 9 9
7 6 6 2 13 21 14 14 11 7 10 7 5 5 10 7 9 9 11 11 13 13 14 12 16 15 12 9 11 13 12 11 12 12 11 10 10 9 8 8 7 8 7 7
4 9 8 11 19 19 25 16 10 8 10 13 9 7 10 9 14 14 14 14 14 14 12 14 15 14 13 11 13 12 11 11 11 10 10 9 9 9 9 7 6 6 3 3
12 21 18 19 22 18 19 3 2 5 5 6 11 11 8 11 12 14 16 16 16 15 14 14 14 14 14 13 13 12 11 12 13 12 9 9 9 8 8 8 7 7 6 6
Wind_Direction
334 132 153 163 245 166 125 140 154 121 145 235 267 204 160 149 145 156 154 167 172 178 169 172 167 158 150 157 160 165 158 158 149 149 151 157 164 166 167 170 173 175 173 171
155 134 128 324 87 138 109 150 132 92 130 249 301 259 169 162 165 162 159 170 176 170 178 185 172 168 168 163 165 164 163 163 156 155 172 160 163 170 171 173 172 170 173 177
149 126 132 8 67 96 113 180 137 118 123 257 309 267 182 190 155 159 172 169 179 173 180 186 178 174 173 175 174 170 174 170 167 164 160 144 139 143 170 185 182 183 171 175
108 148 150 178 176 119 114 136 152 101 125 198 233 220 205 187 178 171 171 169 185 187 181 185 182 176 175 179 181 176 175 173 175 177 174 176 180 176 190 185 187 190 184 179
168 167 162 166 197 199 112 119 139 144 193 8 224 169 195 155 186 186 181 186 189 197 188 187 186 177 171 171 176 179 176 179 184 185 178 178 185 185 172 179 184 191 194 190
85 157 170 287 150 79 129 96 95 67 124 247 227 199 197 184 205 193 199 198 195 199 194 193 189 178 171 172 172 180 179 185 185 185 178 181 190 189 183 186 188 194 195 200
62 75 39 87 133 146 117 145 124 127 164 233 299 231 220 189 197 196 195 197 198 203 197 192 191 184 178 179 181 180 185 190 191 186 187 189 191 190 193 192 195 195 198 203
77 127 169 185 230 190 173 164 147 151 171 188 43 229 220 197 197 195 195 196 194 198 198 197 196 194 184 187 188 189 189 194 196 193 194 191 190 193 194 195 199 202 203 207
127 239 140 238 243 152 227 224 140 103 30 138 205 262 280 208 195 199 199 192 200 198 195 196 192 195 194 192 191 191 192 196 199 201 200 195 190 191 195 193 196 202 207 211
166 134 223 276 175 234 193 204 195 358 160 200 239 229 214 193 199 200 205 202 195 193 193 190 194 197 197 198 195 195 196 200 203 205 202 202 195 195 197 195 203 206 211 211
316 147 173 157 207 210 206 214 230 155 166 194 188 239 204 207 198 202 206 205 195 190 194 194 199 197 180 172 179 178 185 196 202 212 209 206 200 198 197 200 210 210 212 215
58 316 198 192 183 200 218 216 208 189 210 231 235 267 344 220 208 203 208 204 200 194 188 182 174 163 164 165 162 166 156 150 143 122 123 118 186 197 203 205 208 216 219 222
172 238 165 163 243 193 216 213 176 141 144 232 221 289 360 330 297 220 218 203 192 182 171 167 166 168 163 155 153 151 148 148 145 146 144 132 119 107 139 150 141 134 154 176
189 242 213 209 294 151 198 208 203 196 225 223 239 281 300 352 320 267 239 185 176 172 167 155 154 148 146 148 153 153 148 138 131 138 145 147 135 129 113 85 86 95 70 95
211 229 241 252 250 264 229 208 210 222 223 220 244 234 265 276 319 238 214 180 172 171 173 172 169 168 165 161 158 148 143 138 131 132 130 127 111 102 96 98 80 66 86 68
293 240 223 263 248 241 249 252 246 240 242 247 236 255 236 257 130 190 199 189 193 195 192 186 184 179 176 169 169 155 159 151 146 145 149 141 130 117 114 140 117 81 56 73
253 227 189 241 330 319 255 233 232 231 217 225 237 246 189 230 225 228 202 199 199 199 196 196 194 192 187 174 168 171 165 150 152 150 149 143 142 146 147 132 104 122 93 85
195 201 211 268 77 246 240 6 240 235 242 218 239 230 221 227 230 233 207 204 211 208 199 194 177 156 145 142 139 126 127 131 134 133 132 129 132 132 124 118 110 97 85 80
222 248 240 223 215 296 295 139 201 213 263 246 241 247 240 232 128 253 223 214 211 188 171 162 150 147 141 143 138 135 132 132 130 129 123 118 120 119 113 106 98 82 85 82
184 239 227 247 231 234 195 124 202 316 269 351 325 310 253 189 237 249 175 159 153 153 154 151 145 138 141 146 142 137 134 124 119 119 113 107 107 111 110 103 95 71 71 73
162 194 221 231 264 283 259 180 241 180 268 333 332 319 257 210 244 318 101 91 113 133 138 134 138 149 153 151 149 151 153 159 156 149 144 138 133 129 125 114 100 96 93 92
182 174 193 190 227 264 187 138 200 212 202 233 316 327 267 169 127 108 106 116 124 126 125 127 132 137 142 150 152 154 157 144 140 136 130 123 119 117 114 114 105 95 106 101
224 203 198 194 215 248 206 238 224 199 258 243 227 195 176 174 198 152 141 133 133 135 137 136 140 139 140 147 153 151 146 142 137 135 133 131 124 119 123 124 124 113 114 114
223 188 233 279 252 253 260 261 250 246 258 281 254 205 188 192 193 183 165 160 155 150 150 147 144 147 146 146 151 150 149 148 146 145 145 144 139 133 128 123 122 122 122 115
204 161 218 250 275 284 276 257 272 273 258 263 250 227 227 201 192 187 182 178 173 164 159 157 159 158 156 146 144 146 149 150 149 147 147 145 140 138 132 121 124 118 142 129
196 230 234 252 256 248 266 177 222 334 321 267 242 241 232 218 205 190 185 179 173 172 165 164 164 161 163 157 153 155 159 161 155 152 154 156 147 141 133 132 106 83 89 89